Cumberland, WI

11:49 AM CST on December 05, 2019 (GMT -0600)
Cumberland Municipal

Weather History for KUBE - November, 2019

Change the Weather History Date:

Tuesday, November 12, 2019

  Actual Average (KRPD) Record (KRPD)
Temperature  
Mean Temperature 8 °F -  
Max Temperature 15 °F 40 °F 60 °F (2011)
Min Temperature 0 °F 26 °F 10 °F (1996)
Degree Days  
Heating Degree Days 58    
Moisture  
Dew Point -1 °F    
Average Humidity 64    
Maximum Humidity 85    
Minimum Humidity 49    
Precipitation  
Precipitation 0.00 in - - ()
Sea Level Pressure  
Sea Level Pressure 30.32 in    
Wind  
Wind Speed 8 mph ()    
Max Wind Speed 15 mph    
Max Gust Speed 21 mph    
Visibility 10.0 miles    
Events      
Averages and records for this station are not official NWS values.
T = Trace of Precipitation, MM = Missing Value Source: Averaged Metar Reports

Daily Weather History Graph

Daily Weather History Graph

Search for Another Location

Airport or City:

Astronomy

Nov. 12, 2019 Rise Set
Actual Time 7:02 AM CST 4:40 PM CST
Civil Twilight 6:30 AM CST 5:12 PM CST
Nautical Twilight 5:55 AM CST 5:48 PM CST
Astronomical Twilight 5:20 AM CST 6:23 PM CST
Moon 5:09 PM CST (11/12) 6:52 AM CST (11/12)
Length of Visible Light 10h 42m
Length of Day
9h 38m
Full, 100% of the Moon is Illuminated
Nov 12
Full
Nov 19
Last Quarter
Nov 26
New
Dec 4
First Quarter
Dec 11
Full

Hourly Weather History & Observations

Time (CST) Temp. Windchill Dew Point Humidity Pressure Visibility Wind Dir Wind Speed Gust Speed Precip Events Conditions
12:15 AM 5.0 °F -10.0 °F -4.0 °F 66% 30.51 in 10.0 mi NW 10.4 mph - N/A   Clear
12:35 AM 3.2 °F -12.2 °F -4.0 °F 72% 30.51 in 10.0 mi NW 10.4 mph - N/A   Clear
12:55 AM 3.2 °F -12.2 °F -4.0 °F 72% 30.51 in 10.0 mi NW 10.4 mph - N/A   Clear
1:15 AM 3.2 °F -12.2 °F -4.0 °F 72% 30.51 in 10.0 mi NW 10.4 mph - N/A   Clear
1:35 AM 3.2 °F -11.3 °F -4.0 °F 72% 30.51 in 10.0 mi NW 9.2 mph - N/A   Clear
1:55 AM 3.2 °F -12.2 °F -4.0 °F 72% 30.51 in 10.0 mi NW 10.4 mph - N/A   Clear
2:15 AM 3.2 °F -10.3 °F -4.0 °F 72% 30.50 in 10.0 mi NW 8.1 mph - N/A   Clear
2:35 AM 3.2 °F -9.1 °F -4.0 °F 72% 30.50 in 10.0 mi NNW 6.9 mph - N/A   Clear
3:15 AM 3.2 °F -7.8 °F -4.0 °F 72% 30.49 in 10.0 mi NW 5.8 mph - N/A   Clear
3:35 AM 3.2 °F -10.3 °F -4.0 °F 72% 30.49 in 10.0 mi NW 8.1 mph - N/A   Clear
3:55 AM 3.2 °F -7.8 °F -4.0 °F 72% 30.49 in 10.0 mi NW 5.8 mph - N/A   Clear
4:15 AM 1.4 °F -8.3 °F -4.0 °F 78% 30.49 in 10.0 mi West 4.6 mph - N/A   Clear
4:55 AM 1.4 °F -11.3 °F -4.0 °F 78% 30.48 in 10.0 mi West 6.9 mph - N/A   Clear
5:15 AM 1.4 °F -8.3 °F -4.0 °F 78% 30.48 in 10.0 mi West 4.6 mph - N/A   Clear
5:35 AM 1.4 °F -11.3 °F -4.0 °F 78% 30.47 in 10.0 mi West 6.9 mph - N/A   Clear
5:55 AM 1.4 °F -9.9 °F -4.0 °F 78% 30.47 in 10.0 mi West 5.8 mph - N/A   Clear
6:15 AM -0.4 °F -8.3 °F -4.0 °F 85% 30.47 in 10.0 mi West 3.5 mph - N/A   Clear
6:35 AM -0.4 °F -8.3 °F -4.0 °F 85% 30.46 in 10.0 mi West 3.5 mph - N/A   Clear
6:55 AM -0.4 °F - -4.0 °F 85% 30.47 in 10.0 mi Calm Calm - N/A   Clear
7:15 AM -0.4 °F - -4.0 °F 85% 30.45 in 10.0 mi Calm Calm - N/A   Clear
7:35 AM 1.4 °F - -4.0 °F 78% 30.47 in 10.0 mi Calm Calm - N/A   Clear
7:55 AM 3.2 °F -4.2 °F -2.2 °F 78% 30.47 in 10.0 mi SW 3.5 mph - N/A   Clear
8:15 AM 3.2 °F -4.2 °F -0.4 °F 85% 30.47 in 10.0 mi WSW 3.5 mph - N/A   Clear
8:35 AM 5.0 °F -4.1 °F -0.4 °F 78% 30.47 in 10.0 mi WSW 4.6 mph - N/A   Clear
8:55 AM 6.8 °F -0.1 °F -0.4 °F 72% 30.47 in 10.0 mi West 3.5 mph - N/A   Clear
9:15 AM 6.8 °F -3.5 °F -0.4 °F 72% 30.47 in 10.0 mi West 5.8 mph - N/A   Clear
9:35 AM 8.6 °F 0.1 °F -2.2 °F 62% 30.45 in 10.0 mi WSW 4.6 mph - N/A   Clear
9:55 AM 8.6 °F -1.3 °F -2.2 °F 62% 30.44 in 10.0 mi SW 5.8 mph - N/A   Clear
10:15 AM 10.4 °F 0.8 °F -0.4 °F 62% 30.43 in 10.0 mi SW 5.8 mph - N/A   Clear
10:35 AM 10.4 °F -0.4 °F -0.4 °F 62% 30.43 in 10.0 mi SW 6.9 mph - N/A   Clear
10:55 AM 10.4 °F -1.5 °F -0.4 °F 62% 30.42 in 10.0 mi WSW 8.1 mph - N/A   Clear
11:15 AM 12.2 °F 0.7 °F -0.4 °F 57% 30.40 in 10.0 mi South 8.1 mph - N/A   Clear
11:35 AM 12.2 °F 0.7 °F -0.4 °F 57% 30.40 in 10.0 mi SSW 8.1 mph - N/A   Clear
11:55 AM 12.2 °F -0.2 °F -0.4 °F 57% 30.39 in 10.0 mi South 9.2 mph - N/A   Clear
12:15 PM 14.0 °F 2.0 °F -0.4 °F 53% 30.38 in 10.0 mi SSW 9.2 mph 20.7 mph N/A   Clear
12:35 PM 14.0 °F 2.0 °F -0.4 °F 53% 30.36 in 10.0 mi SSW 9.2 mph - N/A   Clear
12:55 PM 14.0 °F 0.5 °F -0.4 °F 53% 30.35 in 10.0 mi SSW 11.5 mph - N/A   Clear
1:15 PM 14.0 °F 5.1 °F -0.4 °F 53% 30.34 in 10.0 mi South 5.8 mph - N/A   Clear
1:35 PM 15.8 °F 3.4 °F 1.4 °F 53% 30.33 in 10.0 mi South 10.4 mph - N/A   Clear
1:55 PM 15.8 °F 5.1 °F -0.4 °F 49% 30.32 in 10.0 mi South 8.1 mph 17.3 mph N/A   Clear
2:15 PM 15.8 °F 5.1 °F -0.4 °F 49% 30.30 in 10.0 mi SW 8.1 mph - N/A   Clear
2:35 PM 15.8 °F 5.1 °F -0.4 °F 49% 30.29 in 10.0 mi SSE 8.1 mph - N/A   Clear
2:55 PM 15.8 °F 2.1 °F -0.4 °F 49% 30.27 in 10.0 mi South 12.7 mph - N/A   Clear
3:15 PM 15.8 °F 2.1 °F -0.4 °F 49% 30.27 in 10.0 mi South 12.7 mph 16.1 mph N/A   Clear
3:35 PM 15.8 °F 2.7 °F -0.4 °F 49% 30.26 in 10.0 mi South 11.5 mph 17.3 mph N/A   Clear
3:55 PM 15.8 °F 2.1 °F -0.4 °F 49% 30.24 in 10.0 mi SSE 12.7 mph - N/A   Clear
4:15 PM 14.0 °F 2.0 °F -0.4 °F 53% 30.22 in 10.0 mi SSE 9.2 mph - N/A   Clear
4:35 PM 14.0 °F 0.5 °F -0.4 °F 53% 30.20 in 10.0 mi SSE 11.5 mph - N/A   Clear
4:55 PM 12.2 °F -1.0 °F -0.4 °F 57% 30.19 in 10.0 mi SSE 10.4 mph - N/A   Clear
5:15 PM 12.2 °F -1.0 °F -0.4 °F 57% 30.18 in 10.0 mi SSE 10.4 mph - N/A   Clear
5:35 PM 12.2 °F -1.0 °F -0.4 °F 57% 30.17 in 10.0 mi SSE 10.4 mph - N/A   Clear
5:55 PM 12.2 °F -1.8 °F -0.4 °F 57% 30.16 in 10.0 mi SSE 11.5 mph - N/A   Clear
6:15 PM 12.2 °F -2.5 °F 1.4 °F 62% 30.16 in 10.0 mi SSE 12.7 mph - N/A   Clear
6:35 PM 12.2 °F -2.5 °F 1.4 °F 62% 30.16 in 10.0 mi SSE 12.7 mph - N/A   Clear
6:55 PM 12.2 °F -3.1 °F 1.4 °F 62% 30.14 in 10.0 mi SSE 13.8 mph - N/A   Clear
7:15 PM 12.2 °F -3.7 °F -0.4 °F 57% 30.14 in 10.0 mi SSE 15.0 mph 19.6 mph N/A   Clear
7:35 PM 12.2 °F -3.1 °F 1.4 °F 62% 30.13 in 10.0 mi SSE 13.8 mph 18.4 mph N/A   Clear
7:55 PM 12.2 °F -2.5 °F -0.4 °F 57% 30.12 in 10.0 mi SSE 12.7 mph 18.4 mph N/A   Clear
8:15 PM 12.2 °F -2.5 °F -0.4 °F 57% 30.11 in 10.0 mi SSE 12.7 mph - N/A   Clear
8:35 PM 12.2 °F -2.5 °F 1.4 °F 62% 30.11 in 10.0 mi South 12.7 mph 17.3 mph N/A   Clear
8:55 PM 12.2 °F -1.8 °F 1.4 °F 62% 30.10 in 10.0 mi SSE 11.5 mph 17.3 mph N/A   Clear
9:15 PM 14.0 °F 0.5 °F 1.4 °F 57% 30.10 in 10.0 mi SSE 11.5 mph 16.1 mph N/A   Clear
9:35 PM 14.0 °F -0.2 °F 1.4 °F 57% 30.09 in 10.0 mi SSE 12.7 mph 18.4 mph N/A   Clear
9:55 PM 14.0 °F -0.2 °F 1.4 °F 57% 30.09 in 10.0 mi SSE 12.7 mph 18.4 mph N/A   Clear
10:15 PM 14.0 °F -0.2 °F 3.2 °F 62% 30.08 in 10.0 mi SSE 12.7 mph - N/A   Scattered Clouds
10:35 PM 14.0 °F 0.5 °F 3.2 °F 62% 30.08 in 10.0 mi South 11.5 mph - N/A   Mostly Cloudy
10:55 PM 14.0 °F -0.2 °F 3.2 °F 62% 30.07 in 10.0 mi South 12.7 mph - N/A   Mostly Cloudy
11:15 PM 14.0 °F -1.4 °F 3.2 °F 62% 30.06 in 10.0 mi South 15.0 mph 18.4 mph N/A   Overcast
11:35 PM 14.0 °F -1.4 °F 3.2 °F 62% 30.04 in 10.0 mi South 15.0 mph - N/A   Overcast
11:55 PM 15.8 °F 2.1 °F 3.2 °F 58% 30.03 in 10.0 mi South 12.7 mph - N/A   Overcast